| time (UTC) | temp C | wind direction | speed KPH | gust KPH | rain 1hr cm | rain 24hr cm | rain mn cm | humidity % | barometer mb |
| 20260507051023 | -17 | 344 | 4.8 | 8.0 | 0.00 | 0.00 | 0.00 | 1008.0 | |
| 20260507050519 | -17 | 41 | 1.6 | 1.6 | 0.00 | 0.00 | 0.00 | 1008.1 | |
| 20260507050016 | -17 | 46 | 4.8 | 8.0 | 0.00 | 0.00 | 0.00 | 1007.8 | |
| 20260507045512 | -17 | 18 | 8.0 | 9.7 | 0.00 | 0.00 | 0.00 | 1007.7 | |
| 20260507045010 | -17 | 22 | 1.6 | 3.2 | 0.00 | 0.00 | 0.00 | 1007.4 | |
| 20260507044506 | -17 | 318 | 6.4 | 8.0 | 0.00 | 0.00 | 0.00 | 1007.4 | |
| 20260507044003 | -17 | 314 | 1.6 | 1.6 | 0.00 | 0.00 | 0.00 | 1007.6 | |
| 20260507043459 | -17 | 323 | 4.8 | 4.8 | 0.00 | 0.00 | 0.00 | 1007.3 | |
| 20260507042955 | -17 | 7 | 6.4 | 8.0 | 0.00 | 0.00 | 0.00 | 1007.0 | |
| 20260507042452 | -17 | 69 | 1.6 | 3.2 | 0.00 | 0.00 | 0.00 | 1007.2 | |
| 20260507041948 | -17 | 5 | 4.8 | 8.0 | 0.00 | 0.00 | 0.00 | 1007.3 | |
| 20260507041445 | -17 | 219 | 0.0 | 1.6 | 0.00 | 0.00 | 0.00 | 1007.2 | |
| 20260507040942 | -17 | 39 | 1.6 | 1.6 | 0.00 | 0.00 | 0.00 | 1007.2 | |
| 20260507040438 | -17 | 345 | 1.6 | 3.2 | 0.00 | 0.00 | 0.00 | 1007.2 | |
| 20260507035934 | -17 | 14 | 1.6 | 1.6 | 0.00 | 0.15 | 0.15 | 1007.5 | |
| 20260507035430 | -17 | 25 | 3.2 | 3.2 | 0.00 | 0.15 | 0.15 | 1007.5 | |
| 20260507034927 | -17 | 354 | 3.2 | 3.2 | 0.00 | 0.15 | 0.15 | 1007.5 | |
| 20260507034424 | -17 | 1 | 0.0 | 0.0 | 0.00 | 0.15 | 0.15 | 1007.2 | |
| 20260507033922 | -17 | 268 | 0.0 | 0.0 | 0.00 | 0.15 | 0.15 | 1007.2 | |
| 20260507033420 | -17 | 242 | 0.0 | 0.0 | 0.00 | 0.15 | 0.15 | 1006.8 | |
| 20260507032916 | -17 | 238 | 0.0 | 0.0 | 0.00 | 0.15 | 0.15 | 1006.9 | |
| 20260507032414 | -17 | 232 | 0.0 | 0.0 | 0.00 | 0.15 | 0.15 | 1007.0 | |
| 20260507031909 | -17 | 233 | 0.0 | 0.0 | 0.00 | 0.15 | 0.15 | 1007.2 | |
| 20260507031406 | -17 | 234 | 0.0 | 0.0 | 0.00 | 0.15 | 0.15 | 1007.1 | |
| 20260507030903 | -17 | 247 | 0.0 | 0.0 | 0.00 | 0.15 | 0.15 | 1007.2 | |
| 20260507030400 | -17 | 245 | 0.0 | 0.0 | 0.00 | 0.15 | 0.15 | 1007.1 | |
| 20260507025857 | -17 | 250 | 0.0 | 0.0 | 0.00 | 0.15 | 0.15 | 1006.8 | |
| 20260507025355 | -17 | 235 | 0.0 | 0.0 | 0.00 | 0.15 | 0.15 | 1006.7 | |
| 20260507024852 | -17 | 233 | 0.0 | 0.0 | 0.00 | 0.15 | 0.15 | 1006.8 | |
| 20260507024349 | -17 | 234 | 0.0 | 0.0 | 0.00 | 0.15 | 0.15 | 1007.1 | |
| 20260507023845 | -17 | 230 | 0.0 | 0.0 | 0.00 | 0.15 | 0.15 | 1006.9 | |
| 20260507023342 | -17 | 226 | 0.0 | 0.0 | 0.00 | 0.15 | 0.15 | 1006.8 | |
| 20260507022839 | -17 | 229 | 0.0 | 0.0 | 0.00 | 0.15 | 0.15 | 1006.8 | |
| 20260507022336 | -17 | 230 | 0.0 | 0.0 | 0.00 | 0.15 | 0.15 | 1007.0 | |
| 20260507021831 | -17 | 232 | 0.0 | 0.0 | 0.00 | 0.15 | 0.15 | 1006.8 | |
| 20260507021327 | -17 | 233 | 0.0 | 0.0 | 0.00 | 0.15 | 0.15 | 1006.7 | |
| 20260507020826 | -17 | 223 | 0.0 | 0.0 | 0.00 | 0.15 | 0.15 | 1006.7 | |
| 20260507020322 | -17 | 227 | 0.0 | 0.0 | 0.00 | 0.15 | 0.15 | 1006.8 | |
| 20260507015819 | -17 | 224 | 0.0 | 0.0 | 0.00 | 0.15 | 0.15 | 1007.0 | |
| 20260507015317 | -17 | 225 | 0.0 | 0.0 | 0.00 | 0.15 | 0.15 | 1007.3 | |
| 20260507014813 | -17 | 231 | 0.0 | 0.0 | 0.00 | 0.15 | 0.15 | 1007.6 | |
| 20260507014310 | -17 | 234 | 0.0 | 0.0 | 0.00 | 0.15 | 0.15 | 1007.5 | |
| 20260507013806 | -17 | 236 | 0.0 | 0.0 | 0.00 | 0.15 | 0.15 | 1007.6 | |
| 20260507013304 | -17 | 229 | 0.0 | 0.0 | 0.00 | 0.15 | 0.15 | 1007.6 | |
| 20260507012801 | -17 | 219 | 0.0 | 0.0 | 0.00 | 0.15 | 0.15 | 1007.5 | |
| 20260507012256 | -17 | 236 | 0.0 | 0.0 | 0.00 | 0.15 | 0.15 | 1007.5 | |
| 20260507011754 | -17 | 245 | 0.0 | 0.0 | 0.00 | 0.15 | 0.15 | 1007.4 | |
| 20260507011251 | -17 | 233 | 0.0 | 0.0 | 0.00 | 0.15 | 0.15 | 1007.2 | |
| 20260507010750 | -17 | 224 | 0.0 | 0.0 | 0.00 | 0.15 | 0.15 | 1007.4 | |
| 20260507010246 | -17 | 242 | 0.0 | 0.0 | 0.00 | 0.15 | 0.15 | 1007.0 | |
| 20260507005744 | -17 | 222 | 0.0 | 0.0 | 0.00 | 0.15 | 0.15 | 1007.1 | |
| 20260507005240 | -17 | 229 | 0.0 | 0.0 | 0.00 | 0.15 | 0.15 | 1007.1 | |
| 20260507004737 | -17 | 228 | 0.0 | 0.0 | 0.00 | 0.15 | 0.15 | 1007.2 | |
| 20260507004235 | -17 | 240 | 0.0 | 0.0 | 0.00 | 0.15 | 0.15 | 1007.3 | |
| 20260507003730 | -17 | 233 | 0.0 | 0.0 | 0.00 | 0.15 | 0.15 | 1007.0 | |
| 20260507003226 | -17 | 237 | 0.0 | 0.0 | 0.00 | 0.15 | 0.15 | 1007.1 | |
| 20260507002722 | -17 | 227 | 0.0 | 0.0 | 0.00 | 0.15 | 0.15 | 1006.9 | |
| 20260507002218 | -17 | 229 | 0.0 | 0.0 | 0.00 | 0.15 | 0.15 | 1007.1 | |
| 20260507001715 | -17 | 238 | 0.0 | 0.0 | 0.00 | 0.15 | 0.15 | 1007.2 | |
| 20260507001213 | -17 | 231 | 0.0 | 0.0 | 0.00 | 0.15 | 0.15 | 1007.3 | |
| 20260507000708 | -17 | 217 | 0.0 | 0.0 | 0.00 | 0.15 | 0.15 | 1006.9 | |
| 20260507000205 | -17 | 233 | 0.0 | 0.0 | 0.00 | 0.15 | 0.15 | 1007.0 | |
| 20260506235702 | -17 | 233 | 0.0 | 0.0 | 0.00 | 0.15 | 0.15 | 1006.8 | |
| 20260506235157 | -17 | 233 | 0.0 | 0.0 | 0.00 | 0.15 | 0.15 | 1006.8 | |
| 20260506234654 | -17 | 217 | 0.0 | 0.0 | 0.00 | 0.15 | 0.15 | 1006.8 | |
| 20260506234151 | -17 | 233 | 0.0 | 0.0 | 0.00 | 0.15 | 0.15 | 1006.4 | |
| 20260506233648 | -17 | 225 | 0.0 | 0.0 | 0.00 | 0.15 | 0.15 | 1006.3 | |
| 20260506233145 | -17 | 212 | 0.0 | 0.0 | 0.00 | 0.15 | 0.15 | 1006.4 | |
| 20260506232641 | -17 | 204 | 0.0 | 0.0 | 0.00 | 0.15 | 0.15 | 1006.8 | |
| 20260506232137 | -17 | 231 | 0.0 | 0.0 | 0.00 | 0.15 | 0.15 | 1006.8 | |
| 20260506231634 | -17 | 231 | 0.0 | 0.0 | 0.00 | 0.15 | 0.15 | 1006.6 | |
| 20260506231133 | -17 | 212 | 0.0 | 0.0 | 0.00 | 0.15 | 0.15 | 1006.7 | |
| 20260506230629 | -17 | 221 | 0.0 | 0.0 | 0.00 | 0.15 | 0.15 | 1006.4 | |
| 20260506230126 | -17 | 162 | 0.0 | 0.0 | 0.00 | 0.15 | 0.15 | 1006.6 | |
| 20260506225623 | -17 | 235 | 0.0 | 0.0 | 0.00 | 0.15 | 0.15 | 1006.6 | |
| 20260506225119 | -17 | 223 | 0.0 | 0.0 | 0.00 | 0.15 | 0.15 | 1006.8 | |
| 20260506224616 | -17 | 206 | 0.0 | 1.6 | 0.00 | 0.15 | 0.15 | 1006.6 | |
| 20260506224112 | -17 | 233 | 0.0 | 0.0 | 0.00 | 0.15 | 0.15 | 1006.6 | |
| 20260506223608 | -17 | 161 | 4.8 | 4.8 | 0.00 | 0.15 | 0.15 | 1006.7 | |
| 20260506223105 | -17 | 239 | 1.6 | 3.2 | 0.00 | 0.15 | 0.15 | 1006.7 | |
| 20260506222602 | -17 | 228 | 1.6 | 3.2 | 0.00 | 0.15 | 0.15 | 1006.7 | |
| 20260506222058 | -17 | 250 | 1.6 | 3.2 | 0.00 | 0.15 | 0.15 | 1006.8 | |
| 20260506221556 | -17 | 182 | 1.6 | 3.2 | 0.00 | 0.15 | 0.15 | 1006.7 | |
| 20260506221054 | -17 | 169 | 4.8 | 8.0 | 0.00 | 0.15 | 0.15 | 1006.6 | |
| 20260506220549 | -17 | 192 | 1.6 | 3.2 | 0.00 | 0.15 | 0.15 | 1006.8 | |
| 20260506220045 | -17 | 184 | 1.6 | 1.6 | 0.00 | 0.15 | 0.15 | 1006.5 | |
| 20260506215542 | -17 | 287 | 6.4 | 9.7 | 0.00 | 0.15 | 0.15 | 1006.6 | |
| 20260506215038 | -17 | 200 | 1.6 | 3.2 | 0.00 | 0.15 | 0.15 | 1006.6 | |
| 20260506214535 | -17 | 221 | 0.0 | 1.6 | 0.00 | 0.15 | 0.15 | 1006.6 | |
| 20260506214032 | -17 | 203 | 3.2 | 4.8 | 0.00 | 0.15 | 0.15 | 1006.6 | |
| 20260506213530 | -17 | 175 | 3.2 | 3.2 | 0.00 | 0.15 | 0.15 | 1006.5 | |
| 20260506213027 | -17 | 175 | 0.0 | 0.0 | 0.00 | 0.15 | 0.15 | 1006.5 | |
| 20260506212524 | -17 | 208 | 0.0 | 1.6 | 0.00 | 0.15 | 0.15 | 1006.4 | |
| 20260506212019 | -17 | 178 | 1.6 | 3.2 | 0.00 | 0.15 | 0.15 | 1006.4 | |
| 20260506211515 | -17 | 221 | 3.2 | 4.8 | 0.00 | 0.15 | 0.15 | 1006.2 | |
| 20260506211013 | -17 | 226 | 1.6 | 3.2 | 0.00 | 0.15 | 0.15 | 1006.3 | |
| 20260506210509 | -17 | 200 | 8.0 | 9.7 | 0.00 | 0.15 | 0.15 | 1006.2 | |
| 20260506210006 | -17 | 220 | 1.6 | 1.6 | 0.00 | 0.15 | 0.15 | 1006.2 | |
| 20260506205502 | -17 | 202 | 3.2 | 4.8 | 0.00 | 0.15 | 0.15 | 1006.1 | |
| 20260506204958 | -17 | 216 | 3.2 | 4.8 | 0.00 | 0.15 | 0.15 | 1006.3 | |
| 20260506204456 | -17 | 126 | 3.2 | 3.2 | 0.00 | 0.15 | 0.15 | 1006.1 | |
| 20260506203953 | -17 | 231 | 0.0 | 0.0 | 0.00 | 0.15 | 0.15 | 1006.1 | |
| 20260506203450 | -17 | 104 | 1.6 | 3.2 | 0.00 | 0.15 | 0.15 | 1006.2 | |
| 20260506202947 | -17 | 200 | 3.2 | 4.8 | 0.00 | 0.15 | 0.15 | 1006.2 | |
| 20260506202444 | -17 | 343 | 1.6 | 3.2 | 0.00 | 0.15 | 0.15 | 1006.1 | |
| 20260506201940 | -17 | 57 | 3.2 | 4.8 | 0.00 | 0.15 | 0.15 | 1006.0 | |
| 20260506201438 | -17 | 51 | 3.2 | 4.8 | 0.00 | 0.15 | 0.15 | 1006.0 | |
| 20260506200934 | -17 | 241 | 0.0 | 0.0 | 0.00 | 0.15 | 0.15 | 1005.7 | |
| 20260506200431 | -17 | 57 | 3.2 | 3.2 | 0.00 | 0.15 | 0.15 | 1006.0 | |
| 20260506195927 | -17 | 257 | 3.2 | 4.8 | 0.00 | 0.15 | 0.15 | 1005.9 | |
| 20260506195424 | -17 | 217 | 3.2 | 4.8 | 0.00 | 0.15 | 0.15 | 1006.0 | |
| 20260506194921 | -17 | 74 | 1.6 | 3.2 | 0.00 | 0.15 | 0.15 | 1006.2 | |
| 20260506194418 | -17 | 163 | 8.0 | 11.3 | 0.00 | 0.15 | 0.15 | 1006.4 | |
| 20260506193915 | -17 | 249 | 1.6 | 4.8 | 0.00 | 0.15 | 0.15 | 1006.3 | |
| 20260506193412 | -17 | 224 | 3.2 | 3.2 | 0.00 | 0.15 | 0.15 | 1006.4 | |
| 20260506192908 | -17 | 283 | 4.8 | 4.8 | 0.00 | 0.15 | 0.15 | 1006.3 | |
| 20260506192406 | -17 | 214 | 0.0 | 0.0 | 0.00 | 0.15 | 0.15 | 1006.1 | |
| 20260506191902 | -17 | 190 | 1.6 | 4.8 | 0.00 | 0.15 | 0.15 | 1006.3 | |
| 20260506191359 | -17 | 187 | 6.4 | 9.7 | 0.00 | 0.15 | 0.15 | 1006.4 | |
| 20260506190856 | -17 | 187 | 1.6 | 3.2 | 0.00 | 0.15 | 0.15 | 1006.4 | |
| 20260506190352 | -17 | 280 | 4.8 | 8.0 | 0.00 | 0.15 | 0.15 | 1006.5 | |
| 20260506185849 | -17 | 165 | 6.4 | 8.0 | 0.00 | 0.15 | 0.15 | 1006.5 | |
| 20260506185346 | -17 | 329 | 4.8 | 8.0 | 0.00 | 0.15 | 0.15 | 1006.6 | |
| 20260506184843 | -17 | 211 | 3.2 | 4.8 | 0.00 | 0.15 | 0.15 | 1006.7 | |
| 20260506184340 | -17 | 177 | 3.2 | 4.8 | 0.00 | 0.15 | 0.15 | 1006.9 | |
| 20260506183838 | -17 | 241 | 3.2 | 3.2 | 0.00 | 0.15 | 0.15 | 1006.8 | |
| 20260506183333 | -17 | 230 | 3.2 | 4.8 | 0.00 | 0.15 | 0.15 | 1006.8 | |
| 20260506182830 | -17 | 198 | 8.0 | 11.3 | 0.00 | 0.15 | 0.15 | 1006.7 | |
| 20260506182327 | -17 | 207 | 4.8 | 8.0 | 0.00 | 0.15 | 0.15 | 1007.1 | |
| 20260506181825 | -17 | 204 | 8.0 | 11.3 | 0.00 | 0.15 | 0.15 | 1006.9 | |
| 20260506181323 | -17 | 191 | 3.2 | 4.8 | 0.00 | 0.15 | 0.15 | 1006.9 | |
| 20260506180819 | -17 | 157 | 8.0 | 11.3 | 0.00 | 0.15 | 0.15 | 1006.9 | |
| 20260506180315 | -17 | 216 | 8.0 | 11.3 | 0.00 | 0.15 | 0.15 | 1007.2 | |
| 20260506175812 | -17 | 297 | 4.8 | 4.8 | 0.00 | 0.15 | 0.15 | 1007.4 | |
| 20260506175309 | -17 | 272 | 6.4 | 9.7 | 0.00 | 0.15 | 0.15 | 1007.4 | |
| 20260506174806 | -17 | 176 | 6.4 | 8.0 | 0.00 | 0.15 | 0.15 | 1007.2 | |
| 20260506174303 | -17 | 198 | 6.4 | 9.7 | 0.00 | 0.15 | 0.15 | 1007.4 | |
| 20260506173801 | -17 | 208 | 1.6 | 4.8 | 0.00 | 0.15 | 0.15 | 1007.6 | |
| 20260506173257 | -17 | 168 | 12.9 | 20.9 | 0.00 | 0.15 | 0.15 | 1007.3 | |
| 20260506172754 | -17 | 180 | 1.6 | 1.6 | 0.00 | 0.15 | 0.15 | 1007.2 | |
| 20260506172251 | -17 | 227 | 4.8 | 8.0 | 0.00 | 0.15 | 0.15 | 1006.8 | |
| 20260506171749 | -17 | 338 | 6.4 | 11.3 | 0.00 | 0.15 | 0.15 | 1007.4 | |
| 20260506171245 | -17 | 190 | 6.4 | 9.7 | 0.00 | 0.15 | 0.15 | 1007.1 | |
| 20260506170743 | -17 | 343 | 3.2 | 4.8 | 0.00 | 0.15 | 0.15 | 1007.2 | |
| 20260506170239 | -17 | 204 | 6.4 | 9.7 | 0.00 | 0.15 | 0.15 | 1007.4 | |
| 20260506165738 | -17 | 242 | 4.8 | 8.0 | 0.00 | 0.15 | 0.15 | 1007.3 | |
| 20260506165235 | -17 | 188 | 8.0 | 11.3 | 0.00 | 0.15 | 0.15 | 1007.0 | |
| 20260506164732 | -17 | 230 | 3.2 | 3.2 | 0.00 | 0.15 | 0.15 | 1007.5 | |
| 20260506164229 | -17 | 212 | 3.2 | 4.8 | 0.00 | 0.15 | 0.15 | 1007.4 | |
| 20260506163726 | -17 | 173 | 4.8 | 4.8 | 0.00 | 0.15 | 0.15 | 1007.5 | |
| 20260506163220 | -17 | 227 | 1.6 | 1.6 | 0.00 | 0.15 | 0.15 | 1007.7 | |
| 20260506162717 | -17 | 213 | 1.6 | 3.2 | 0.00 | 0.15 | 0.15 | 1007.9 | |
| 20260506162215 | -17 | 202 | 3.2 | 3.2 | 0.00 | 0.15 | 0.15 | 1007.9 | |
| 20260506161712 | -17 | 145 | 0.0 | 1.6 | 0.00 | 0.15 | 0.15 | 1008.0 | |
| 20260506161209 | -17 | 170 | 4.8 | 9.7 | 0.00 | 0.15 | 0.15 | 1007.9 | |
| 20260506160706 | -17 | 218 | 0.0 | 0.0 | 0.18 | 0.15 | 0.15 | 1008.0 | |
| 20260506160202 | -17 | 228 | 0.0 | 1.6 | 0.18 | 0.15 | 0.15 | 1007.7 | |
| 20260506155701 | -17 | 239 | 0.0 | 0.0 | 0.00 | 0.13 | 0.13 | 1008.2 | |
| 20260506155158 | -17 | 223 | 1.6 | 3.2 | 0.13 | 0.13 | 0.13 | 1008.2 | |
| 20260506153300 | -17 | 190 | 4.8 | 8.0 | 0.13 | 0.08 | 0.08 | 1008.8 | |
| 20260506152757 | -17 | 221 | 3.2 | 3.2 | 0.30 | 0.08 | 0.08 | 1009.0 | |
| 20260506152254 | -17 | 211 | 4.8 | 4.8 | 0.18 | 0.05 | 0.05 | 1009.1 | |
| 20260506151753 | -17 | 191 | 1.6 | 1.6 | 0.00 | 0.03 | 0.03 | 1009.0 | |
| 20260506151249 | -17 | 218 | 3.2 | 3.2 | 0.18 | 0.03 | 0.03 | 1008.7 | |
| 20260506150746 | -17 | 211 | 3.2 | 3.2 | 0.18 | 0.03 | 0.03 | 1009.0 | |
| 20260506150243 | -17 | 194 | 1.6 | 1.6 | 0.00 | 0.00 | 0.00 | 1008.8 | |
| 20260506145740 | -17 | 213 | 3.2 | 3.2 | 0.00 | 0.00 | 0.00 | 1008.8 | |
| 20260506145236 | -17 | 211 | 4.8 | 4.8 | 0.00 | 0.00 | 0.00 | 1009.0 | |
| 20260506144734 | -17 | 210 | 3.2 | 3.2 | 0.00 | 0.00 | 0.00 | 1008.8 | |
| 20260506144231 | -17 | 121 | 1.6 | 1.6 | 0.00 | 0.00 | 0.00 | 1008.8 | |
| 20260506143728 | -17 | 193 | 1.6 | 4.8 | 0.00 | 0.00 | 0.00 | 1009.0 | |
| 20260506143225 | -17 | 223 | 3.2 | 4.8 | 0.00 | 0.00 | 0.00 | 1008.7 | |
| 20260506142724 | -17 | 204 | 4.8 | 4.8 | 0.00 | 0.00 | 0.00 | 1009.0 | |
| 20260506142221 | -17 | 187 | 1.6 | 3.2 | 0.00 | 0.00 | 0.00 | 1008.8 | |
| 20260506141719 | -17 | 272 | 4.8 | 8.0 | 0.00 | 0.00 | 0.00 | 1009.0 | |
| 20260506141217 | -17 | 98 | 3.2 | 3.2 | 0.00 | 0.00 | 0.00 | 1009.1 | |
| 20260506140715 | -17 | 14 | 1.6 | 3.2 | 0.00 | 0.00 | 0.00 | 1009.0 | |
| 20260506140212 | -17 | 227 | 3.2 | 3.2 | 0.00 | 0.00 | 0.00 | 1008.9 | |
| 20260506135708 | -17 | 206 | 4.8 | 8.0 | 0.00 | 0.00 | 0.00 | 1009.0 | |
| 20260506135205 | -17 | 241 | 4.8 | 4.8 | 0.00 | 0.00 | 0.00 | 1008.9 | |
| 20260506134701 | -17 | 215 | 4.8 | 4.8 | 0.00 | 0.00 | 0.00 | 1008.9 | |
| 20260506134157 | -17 | 204 | 3.2 | 3.2 | 0.00 | 0.00 | 0.00 | 1008.6 | |
| 20260506133655 | -17 | 225 | 0.0 | 1.6 | 0.00 | 0.00 | 0.00 | 1008.8 | |
| 20260506133151 | -17 | 175 | 3.2 | 4.8 | 0.00 | 0.00 | 0.00 | 1008.6 | |
| 20260506132649 | -17 | 184 | 4.8 | 4.8 | 0.00 | 0.00 | 0.00 | 1008.7 | |
| 20260506132145 | -17 | 313 | 0.0 | 1.6 | 0.00 | 0.00 | 0.00 | 1008.4 | |
| 20260506131643 | -17 | 200 | 6.4 | 9.7 | 0.00 | 0.00 | 0.00 | 1008.8 | |
| 20260506131139 | -17 | 192 | 3.2 | 4.8 | 0.00 | 0.00 | 0.00 | 1008.6 | |
| 20260506130636 | -17 | 182 | 4.8 | 4.8 | 0.00 | 0.00 | 0.00 | 1008.6 | |
| 20260506130134 | -17 | 272 | 4.8 | 8.0 | 0.00 | 0.00 | 0.00 | 1008.7 | |
| 20260506125632 | -17 | 171 | 4.8 | 8.0 | 0.00 | 0.00 | 0.00 | 1008.5 | |
| 20260506125129 | -17 | 256 | 1.6 | 1.6 | 0.00 | 0.00 | 0.00 | 1008.7 | |
| 20260506124627 | -17 | 200 | 4.8 | 4.8 | 0.00 | 0.00 | 0.00 | 1008.6 | |
| 20260506124125 | -17 | 221 | 0.0 | 1.6 | 0.00 | 0.00 | 0.00 | 1008.8 | |
| 20260506123622 | -17 | 175 | 3.2 | 4.8 | 0.00 | 0.00 | 0.00 | 1008.9 | |
| 20260506123121 | -17 | 215 | 3.2 | 4.8 | 0.00 | 0.00 | 0.00 | 1008.7 | |
| 20260506122617 | -17 | 204 | 3.2 | 4.8 | 0.00 | 0.00 | 0.00 | 1008.8 | |
| 20260506122115 | -17 | 227 | 1.6 | 1.6 | 0.00 | 0.00 | 0.00 | 1008.8 | |
| 20260506121612 | -17 | 233 | 4.8 | 8.0 | 0.00 | 0.00 | 0.00 | 1008.7 | |
| 20260506121108 | -17 | 239 | 3.2 | 3.2 | 0.00 | 0.00 | 0.00 | 1008.9 | |
| 20260506120606 | -17 | 202 | 4.8 | 4.8 | 0.00 | 0.00 | 0.00 | 1009.0 | |
| 20260506120103 | -17 | 122 | 1.6 | 3.2 | 0.00 | 0.00 | 0.00 | 1008.7 | |
| 20260506115602 | -17 | 263 | 3.2 | 4.8 | 0.00 | 0.00 | 0.00 | 1008.7 | |
| 20260506115059 | -17 | 173 | 6.4 | 8.0 | 0.00 | 0.00 | 0.00 | 1008.9 | |
| 20260506114556 | -17 | 207 | 8.0 | 11.3 | 0.00 | 0.00 | 0.00 | 1008.7 | |
| 20260506114055 | -17 | 185 | 6.4 | 11.3 | 0.00 | 0.00 | 0.00 | 1008.6 | |
| 20260506113552 | -17 | 232 | 1.6 | 4.8 | 0.00 | 0.00 | 0.00 | 1008.6 | |
| 20260506113049 | -17 | 230 | 4.8 | 4.8 | 0.00 | 0.00 | 0.00 | 1008.7 | |
| 20260506112546 | -17 | 175 | 4.8 | 9.7 | 0.00 | 0.00 | 0.00 | 1008.6 | |
| 20260506112043 | -17 | 181 | 4.8 | 8.0 | 0.00 | 0.00 | 0.00 | 1008.5 | |
| 20260506111541 | -17 | 189 | 6.4 | 9.7 | 0.00 | 0.00 | 0.00 | 1008.6 | |
| 20260506111038 | -17 | 204 | 4.8 | 4.8 | 0.00 | 0.00 | 0.00 | 1008.6 | |
| 20260506110536 | -17 | 199 | 6.4 | 9.7 | 0.00 | 0.00 | 0.00 | 1008.4 | |
| 20260506110033 | -17 | 212 | 4.8 | 4.8 | 0.00 | 0.00 | 0.00 | 1008.5 | |
| 20260506105529 | -17 | 178 | 4.8 | 9.7 | 0.00 | 0.00 | 0.00 | 1008.4 | |
| 20260506105026 | -17 | 247 | 3.2 | 3.2 | 0.00 | 0.00 | 0.00 | 1008.7 | |
| 20260506104524 | -17 | 194 | 3.2 | 4.8 | 0.00 | 0.00 | 0.00 | 1008.5 | |
| 20260506104022 | -17 | 211 | 1.6 | 3.2 | 0.00 | 0.00 | 0.00 | 1008.4 | |
| 20260506103519 | -17 | 192 | 3.2 | 3.2 | 0.00 | 0.00 | 0.00 | 1008.6 | |
| 20260506103015 | -17 | 199 | 3.2 | 3.2 | 0.00 | 0.00 | 0.00 | 1008.5 | |
| 20260506102514 | -17 | 228 | 4.8 | 4.8 | 0.00 | 0.00 | 0.00 | 1008.3 | |
| 20260506102011 | -17 | 215 | 4.8 | 8.0 | 0.00 | 0.00 | 0.00 | 1008.5 | |
| 20260506101507 | -17 | 206 | 4.8 | 4.8 | 0.00 | 0.00 | 0.00 | 1008.4 | |
| 20260506101005 | -17 | 207 | 4.8 | 4.8 | 0.00 | 0.00 | 0.00 | 1008.5 | |
| 20260506100503 | -17 | 198 | 4.8 | 4.8 | 0.00 | 0.00 | 0.00 | 1008.6 | |
| 20260506100001 | -17 | 225 | 4.8 | 8.0 | 0.00 | 0.00 | 0.00 | 1008.5 | |
| 20260506095459 | -17 | 227 | 3.2 | 3.2 | 0.00 | 0.00 | 0.00 | 1008.7 | |
| 20260506094955 | -17 | 202 | 3.2 | 3.2 | 0.00 | 0.00 | 0.00 | 1008.4 | |
| 20260506094453 | -17 | 205 | 4.8 | 4.8 | 0.00 | 0.00 | 0.00 | 1008.3 | |
| 20260506093950 | -17 | 212 | 3.2 | 4.8 | 0.00 | 0.00 | 0.00 | 1008.4 | |
| 20260506093449 | -17 | 218 | 0.0 | 0.0 | 0.00 | 0.00 | 0.00 | 1008.5 | |
| 20260506092946 | -17 | 221 | 8.0 | 9.7 | 0.00 | 0.00 | 0.00 | 1008.3 | |
| 20260506092444 | -17 | 182 | 4.8 | 4.8 | 0.00 | 0.00 | 0.00 | 1008.5 | |
| 20260506091940 | -17 | 201 | 4.8 | 4.8 | 0.00 | 0.00 | 0.00 | 1008.5 | |
| 20260506091438 | -17 | 198 | 3.2 | 3.2 | 0.00 | 0.00 | 0.00 | 1008.3 | |
| 20260506090935 | -17 | 189 | 1.6 | 1.6 | 0.00 | 0.00 | 0.00 | 1008.6 | |
| 20260506090433 | -17 | 176 | 3.2 | 3.2 | 0.00 | 0.00 | 0.00 | 1008.5 | |
| 20260506085929 | -17 | 220 | 6.4 | 8.0 | 0.00 | 0.00 | 0.00 | 1008.7 | |
| 20260506085426 | -17 | 228 | 3.2 | 4.8 | 0.00 | 0.00 | 0.00 | 1008.4 | |
| 20260506084922 | -17 | 205 | 4.8 | 8.0 | 0.00 | 0.00 | 0.00 | 1008.3 | |
| 20260506084420 | -17 | 189 | 4.8 | 8.0 | 0.00 | 0.00 | 0.00 | 1008.4 | |
| 20260506083915 | -17 | 202 | 1.6 | 1.6 | 0.00 | 0.00 | 0.00 | 1008.4 | |
| 20260506083413 | -17 | 216 | 3.2 | 3.2 | 0.00 | 0.00 | 0.00 | 1008.4 | |
| 20260506082911 | -17 | 176 | 4.8 | 8.0 | 0.00 | 0.00 | 0.00 | 1008.3 | |
| 20260506082408 | -17 | 210 | 6.4 | 8.0 | 0.00 | 0.00 | 0.00 | 1008.5 | |
| 20260506081903 | -17 | 194 | 4.8 | 4.8 | 0.00 | 0.00 | 0.00 | 1008.5 | |
| 20260506081402 | -17 | 204 | 3.2 | 3.2 | 0.00 | 0.00 | 0.00 | 1008.3 | |
| 20260506080858 | -17 | 228 | 3.2 | 4.8 | 0.00 | 0.00 | 0.00 | 1008.5 | |
| 20260506080355 | -17 | 185 | 3.2 | 3.2 | 0.00 | 0.00 | 0.00 | 1008.6 | |
| 20260506073339 | -17 | 217 | 4.8 | 4.8 | 0.00 | 0.00 | 0.00 | 1008.9 | |
| 20260506072836 | -17 | 213 | 4.8 | 4.8 | 0.00 | 0.00 | 0.00 | 1008.7 | |
| 20260506072334 | -17 | 79 | 4.8 | 8.0 | 0.00 | 0.00 | 0.00 | 1008.9 | |
| 20260506071831 | -17 | 234 | 3.2 | 3.2 | 0.00 | 0.00 | 0.00 | 1008.7 | |
| 20260506071329 | -17 | 201 | 4.8 | 8.0 | 0.00 | 0.00 | 0.00 | 1008.8 | |
| 20260506070826 | -17 | 192 | 4.8 | 4.8 | 0.00 | 0.00 | 0.00 | 1009.0 | |
| 20260506070323 | -17 | 213 | 3.2 | 3.2 | 0.00 | 0.00 | 0.00 | 1008.7 | |
| 20260506062300 | -17 | 209 | 1.6 | 1.6 | 0.00 | 0.00 | 0.00 | 1008.7 | |
| 20260506061756 | -17 | 234 | 4.8 | 8.0 | 0.00 | 0.00 | 0.00 | 1008.8 | |
| 20260506061253 | -17 | 198 | 4.8 | 4.8 | 0.00 | 0.00 | 0.00 | 1008.9 | |
| 20260506060751 | -17 | 190 | 4.8 | 4.8 | 0.00 | 0.00 | 0.00 | 1009.0 | |
| 20260506060249 | -17 | 196 | 3.2 | 4.8 | 0.00 | 0.00 | 0.00 | 1008.8 |